LiveATC.Net - Listen to live air traffic control over the Internet! Contact LiveATC.net for advertising information


ICAO: KSAN  IATA: SAN   Airport: San Diego International Airport
City: San Diego   State/Province: California
Country: United States   Continent: North America
KSAN METAR Weather: KSAN 301751Z 22003KT 10SM BKN240 22/06 A3001 RMK AO2 SLP161 T02170061 10222 20161 50005
KSAN Flight Activity (FlightAware)
KSAN Airport Info   (AirNav) (iFlightPlanner)
KSAN Tower
Feed Status: DOWN
Last heard on: 2014-10-29 09:04:02 (1 days 9 hours 11 minutes ago)
KSAN Tower Audio Archives
FacilityFrequency
Lindbergh Tower118.300


NOTICE

Unauthorized use prohibited. See LiveATC.net Terms of Service


Find LiveATC Audio Streams


Airport/ARTCC Code

Frequency
(e.g., 124.400, 128.75)
Site-wide search

Browse LiveATC Feeds
LiveATC Coverage Map
Top 50 LiveATC Feeds
Bad Weather Areas

LiveATC FAQ
Offer a LiveATC Feed
Contact LiveATC.net
Press Inquiries

LiveATC on iPhone
LiveATC on Android

LiveATC Mobile
(Mobile browser)

ATC Audio Archives
Interesting Recordings

LiveATC Forums


Home Page
About LiveATC.net
Make a Donation
LiveATC Bookstore

Terms of Use
Privacy Policy

ATC/Radar Sites
U.S. ARTCC Freqs
Canadian Air Freqs

AIRMETs/SIGMETs

FAA Airport Status
Nat'l Airspace Status
Arrival Demand Charts


Server Software By:
Icecast.org
Liquidsoap

Please make a donation to help us keep growing!